weather.gov     
National Weather Service

Regional Weather Roundup
NWS Homepage
This page is being discontinued on March 12, 2014.
The same data is available at this site. Please update your bookmarks.
Thank you, and we apologize for the inconvenience.
Please send an email to SR-SRH.Webmaster@noaa.gov with any concerns.


Current Version
Previous Version:    01  02  03  04  05  06  07  08  09  10  11  12  13  14  15  16  17  18  19  20  21  22  23  24  25  26  
[Printable]
233
ASUS41 KALY 211410
RWRALY

NEW YORK STATE HOURLY WEATHER ROUNDUP
NATIONAL WEATHER SERVICE ALBANY NY
1000 AM EDT MON APR 21 2014

NOTE: "FAIR" INDICATES FEW OR NO CLOUDS BELOW 12,000 FEET WITH NO
SIGNIFICANT WEATHER AND/OR NO OBSTRUCTIONS TO VISIBILITY.

NYZ032-033-038>043-046>054-057>066-NYZ062>081-211500-
EAST


CITY           SKY/WX    TMP DP  RH WIND       PRES   REMARKS
ALBANY         PTSUNNY   50  27  40 S8        30.15F
GLENS FALLS    MOSUNNY   56  31  38 S12       30.11F
POUGHKEEPSIE   SUNNY     52  23  32 VRB6      30.17F
NEWBURGH       SUNNY     52  25  35 CALM      30.18F
MONTGOMERY     SUNNY     52  22  30 S8        30.16F
WHITE PLAINS   SUNNY     50  24  36 VRB3      30.18F
ISLIP          MOSUNNY   52  35  52 CALM      30.18F
NEW YORK CITY  PTSUNNY   48  31  51 NE7       30.19F
CENTRAL PARK   SUNNY     53  30  41 VRB6      30.21F
$$

NYZ005>009-017-018-044>046-055-056-211500-
CENTRAL


CITY           SKY/WX    TMP DP  RH WIND       PRES   REMARKS
FULTON         MOSUNNY   60  35  39 S10       30.06F
SYRACUSE       PTSUNNY   61  33  35 CALM      30.07F
ROME           MOSUNNY   55  31  39 SE3       30.10F
ELMIRA         SUNNY     57  35  43 CALM      30.10F
BINGHAMTON     SUNNY     52  31  44 SW8       30.11F
MONTICELLO     SUNNY     52  25  35 W5        30.16F
$$

NYZ026>034-041>043-211500-
NORTH


CITY           SKY/WX    TMP DP  RH WIND       PRES   REMARKS
WATERTOWN      PTSUNNY   59  33  37 SW6       30.03F
FORT DRUM      NOT AVBL
MASSENA        PTSUNNY   59  35  40 SW20G25   30.01F
SARANAC LAKE   PTSUNNY   54  28  36 SW12G22   30.02F
PLATTSBURGH    CLOUDY    49  31  49 SE9       30.04F
$$

NYZ001>004-010>016-019>021-211500-
WEST


CITY           SKY/WX    TMP DP  RH WIND       PRES   REMARKS
NIAGARA FALLS  PTSUNNY   58  34  40 SW10      30.03F
BUFFALO        PTSUNNY   62  34  35 SW10      30.03F
DUNKIRK        MOSUNNY   62  32  32 SW8       30.03F
JAMESTOWN      MOSUNNY   57  32  38 S9        30.07F
WELLSVILLE     MOSUNNY   56  28  34 VRB5      30.10F
ROCHESTER      PTSUNNY   62  36  37 SW10      30.03F
PENN YAN       MOSUNNY   59  33  37 S13       30.06F
$$

             KEY
       WCI = WIND CHILL INDEX
       VSB = VISIBILITY
       HX  = HEAT INDEX
$$




U.S. Dept. of Commerce
NOAA National Weather Service
1325 East West Highway
Silver Spring, MD 20910
E-mail: w-nws.webmaster@noaa.gov
Page last modified: May 16, 2007
NATIONAL WEATHER SERVICE: for Safety, for Work, for Fun - FOR LIFE